Time,TemperatureF,DewpointF,PressureIn,WindDirection,WindDirectionDegrees,WindSpeedMPH,WindSpeedGustMPH,Humidity,HourlyPrecipIn,Conditions,Clouds,dailyrainin,SolarRadiationWatts/m^2,SoftwareType,DateUTC
2013-03-21 00:02:00,73.0,58.0,-100.00,ESE,105,3.0,6.0,59,0.00,,,0.00,0.000000,,2013-03-21 10:02:00,
2013-03-21 00:12:00,73.0,58.0,-100.00,ESE,105,3.0,6.0,59,0.00,,,0.00,0.000000,,2013-03-21 10:12:00,
2013-03-21 00:22:00,73.0,58.0,-100.00,ESE,105,3.0,6.0,59,0.00,,,0.00,0.000000,,2013-03-21 10:22:00,
2013-03-21 00:43:00,72.0,56.0,-100.00,East,85,3.0,6.0,58,0.00,,,0.00,0.000000,,2013-03-21 10:43:00,
2013-03-21 00:53:00,72.0,56.0,-100.00,East,85,3.0,6.0,58,0.00,,,0.00,0.000000,,2013-03-21 10:53:00,
2013-03-21 01:02:00,72.0,56.0,-100.00,East,85,3.0,6.0,58,0.00,,,0.00,0.000000,,2013-03-21 11:02:00,
2013-03-21 01:12:00,72.0,56.0,-100.00,East,85,3.0,6.0,58,0.00,,,0.00,0.000000,,2013-03-21 11:12:00,
2013-03-21 01:22:00,72.0,56.0,-100.00,East,85,3.0,6.0,58,0.00,,,0.00,0.000000,,2013-03-21 11:22:00,
2013-03-21 01:43:00,72.0,57.0,-100.00,ENE,59,3.0,5.0,59,0.00,,,0.00,0.000000,,2013-03-21 11:43:00,
2013-03-21 01:53:00,72.0,57.0,-100.00,ENE,59,3.0,5.0,59,0.00,,,0.00,0.000000,,2013-03-21 11:53:00,
2013-03-21 02:02:00,72.0,57.0,-100.00,ENE,59,3.0,5.0,59,0.00,,,0.00,0.000000,,2013-03-21 12:02:00,
2013-03-21 02:12:00,72.0,57.0,-100.00,ENE,59,3.0,5.0,59,0.00,,,0.00,0.000000,,2013-03-21 12:12:00,
2013-03-21 02:21:00,72.0,57.0,-100.00,ENE,59,3.0,5.0,59,0.00,,,0.00,0.000000,,2013-03-21 12:21:00,
2013-03-21 02:43:00,71.0,55.0,-100.00,ENE,70,2.0,4.0,57,0.00,,,0.00,0.000000,,2013-03-21 12:43:00,
2013-03-21 02:53:00,71.0,55.0,-100.00,ENE,70,2.0,4.0,57,0.00,,,0.00,0.000000,,2013-03-21 12:53:00,
2013-03-21 03:02:00,71.0,55.0,-100.00,ENE,70,2.0,4.0,57,0.00,,,0.00,0.000000,,2013-03-21 13:02:00,
2013-03-21 03:12:00,71.0,55.0,-100.00,ENE,70,2.0,4.0,57,0.00,,,0.00,0.000000,,2013-03-21 13:12:00,
2013-03-21 03:21:00,71.0,55.0,-100.00,ENE,70,2.0,4.0,57,0.00,,,0.00,0.000000,,2013-03-21 13:21:00,
2013-03-21 03:43:00,70.0,56.0,-100.00,East,80,2.0,5.0,62,0.00,,,0.00,0.000000,,2013-03-21 13:43:00,
2013-03-21 03:52:00,70.0,56.0,-100.00,East,80,2.0,5.0,62,0.00,,,0.00,0.000000,,2013-03-21 13:52:00,
2013-03-21 04:02:00,70.0,56.0,-100.00,East,80,2.0,5.0,62,0.00,,,0.00,0.000000,,2013-03-21 14:02:00,
2013-03-21 04:11:00,70.0,56.0,-100.00,East,80,2.0,5.0,62,0.00,,,0.00,0.000000,,2013-03-21 14:11:00,
2013-03-21 04:21:00,70.0,56.0,-100.00,East,80,2.0,5.0,62,0.00,,,0.00,0.000000,,2013-03-21 14:21:00,
2013-03-21 04:43:00,70.0,56.0,-100.00,East,91,6.0,12.0,61,0.00,,,0.00,0.000000,,2013-03-21 14:43:00,
2013-03-21 04:52:00,70.0,56.0,-100.00,East,91,6.0,12.0,61,0.00,,,0.00,0.000000,,2013-03-21 14:52:00,
2013-03-21 05:03:00,70.0,56.0,-100.00,East,91,6.0,12.0,61,0.00,,,0.00,0.000000,,2013-03-21 15:03:00,
2013-03-21 05:12:00,70.0,56.0,-100.00,East,91,6.0,12.0,61,0.00,,,0.00,0.000000,,2013-03-21 15:12:00,
2013-03-21 05:21:00,70.0,56.0,-100.00,East,91,6.0,12.0,61,0.00,,,0.00,0.000000,,2013-03-21 15:21:00,
2013-03-21 05:43:00,71.0,56.0,-100.00,East,101,6.0,12.0,59,0.00,,,0.00,0.000000,,2013-03-21 15:43:00,
2013-03-21 05:53:00,71.0,56.0,-100.00,East,101,6.0,12.0,59,0.00,,,0.00,0.000000,,2013-03-21 15:53:00,
2013-03-21 06:03:00,71.0,56.0,-100.00,East,101,6.0,12.0,59,0.00,,,0.00,0.000000,,2013-03-21 16:03:00,
2013-03-21 06:12:00,71.0,56.0,-100.00,East,101,6.0,12.0,59,0.00,,,0.00,0.000000,,2013-03-21 16:12:00,
2013-03-21 06:22:00,71.0,56.0,-100.00,East,101,6.0,12.0,59,0.00,,,0.00,0.000000,,2013-03-21 16:22:00,
2013-03-21 06:42:00,71.0,56.0,-100.00,ESE,114,6.0,10.0,59,0.00,,,0.00,0.000000,,2013-03-21 16:42:00,
2013-03-21 06:53:00,71.0,56.0,-100.00,ESE,114,6.0,10.0,59,0.00,,,0.00,0.000000,,2013-03-21 16:53:00,
2013-03-21 07:02:00,71.0,56.0,-100.00,ESE,114,6.0,10.0,59,0.00,,,0.00,0.000000,,2013-03-21 17:02:00,
2013-03-21 07:12:00,71.0,56.0,-100.00,ESE,114,6.0,10.0,59,0.00,,,0.00,0.000000,,2013-03-21 17:12:00,
2013-03-21 07:22:00,71.0,56.0,-100.00,ESE,114,6.0,10.0,59,0.00,,,0.00,0.000000,,2013-03-21 17:22:00,
2013-03-21 07:43:00,70.0,55.0,-100.00,East,95,6.0,8.0,60,0.00,,,0.00,9.000000,,2013-03-21 17:43:00,
2013-03-21 07:53:00,70.0,55.0,-100.00,East,95,6.0,8.0,60,0.00,,,0.00,9.000000,,2013-03-21 17:53:00,
2013-03-21 08:02:00,70.0,55.0,-100.00,East,95,6.0,8.0,60,0.00,,,0.00,9.000000,,2013-03-21 18:02:00,
2013-03-21 08:12:00,70.0,55.0,-100.00,East,95,6.0,8.0,60,0.00,,,0.00,9.000000,,2013-03-21 18:12:00,
2013-03-21 08:21:00,70.0,55.0,-100.00,East,95,6.0,8.0,60,0.00,,,0.00,9.000000,,2013-03-21 18:21:00,
2013-03-21 08:43:00,74.0,54.0,-100.00,East,86,4.0,8.0,50,0.00,,,0.00,186.000000,,2013-03-21 18:43:00,
2013-03-21 08:52:00,74.0,54.0,-100.00,East,86,4.0,8.0,50,0.00,,,0.00,186.000000,,2013-03-21 18:52:00,
2013-03-21 09:02:00,74.0,54.0,-100.00,East,86,4.0,8.0,50,0.00,,,0.00,186.000000,,2013-03-21 19:02:00,
2013-03-21 09:12:00,74.0,54.0,-100.00,East,86,4.0,8.0,50,0.00,,,0.00,186.000000,,2013-03-21 19:12:00,
2013-03-21 09:21:00,74.0,54.0,-100.00,East,86,4.0,8.0,50,0.00,,,0.00,186.000000,,2013-03-21 19:21:00,
2013-03-21 09:43:00,79.0,60.0,-100.00,West,281,2.0,6.0,52,0.00,,,0.00,423.000000,,2013-03-21 19:43:00,
2013-03-21 09:52:00,79.0,60.0,-100.00,West,281,2.0,6.0,52,0.00,,,0.00,423.000000,,2013-03-21 19:52:00,
2013-03-21 10:02:00,79.0,60.0,-100.00,West,281,2.0,6.0,52,0.00,,,0.00,423.000000,,2013-03-21 20:02:00,
2013-03-21 10:12:00,79.0,60.0,-100.00,West,281,2.0,6.0,52,0.00,,,0.00,423.000000,,2013-03-21 20:12:00,
2013-03-21 10:22:00,79.0,60.0,-100.00,West,281,2.0,6.0,52,0.00,,,0.00,423.000000,,2013-03-21 20:22:00,
2013-03-21 10:42:00,79.0,62.0,-100.00,WNW,293,5.0,10.0,56,0.00,,,0.00,648.000000,,2013-03-21 20:42:00,
2013-03-21 10:53:00,79.0,62.0,-100.00,WNW,293,5.0,10.0,56,0.00,,,0.00,648.000000,,2013-03-21 20:53:00,
2013-03-21 11:02:00,79.0,62.0,-100.00,WNW,293,5.0,10.0,56,0.00,,,0.00,648.000000,,2013-03-21 21:02:00,
2013-03-21 11:12:00,79.0,62.0,-100.00,WNW,293,5.0,10.0,56,0.00,,,0.00,648.000000,,2013-03-21 21:12:00,
2013-03-21 11:21:00,79.0,62.0,-100.00,WNW,293,5.0,10.0,56,0.00,,,0.00,648.000000,,2013-03-21 21:21:00,
2013-03-21 11:43:00,78.0,66.0,-100.00,WNW,292,5.0,9.0,67,0.00,,,0.00,828.000000,,2013-03-21 21:43:00,
2013-03-21 11:53:00,78.0,66.0,-100.00,WNW,292,5.0,9.0,67,0.00,,,0.00,828.000000,,2013-03-21 21:53:00,
2013-03-21 12:02:00,78.0,66.0,-100.00,WNW,292,5.0,9.0,67,0.00,,,0.00,828.000000,,2013-03-21 22:02:00,
2013-03-21 12:12:00,78.0,66.0,-100.00,WNW,292,5.0,9.0,67,0.00,,,0.00,828.000000,,2013-03-21 22:12:00,
2013-03-21 12:22:00,78.0,66.0,-100.00,WNW,292,5.0,9.0,67,0.00,,,0.00,828.000000,,2013-03-21 22:22:00,
2013-03-21 12:43:00,79.0,66.0,-100.00,West,269,7.0,12.0,64,0.00,,,0.00,912.000000,,2013-03-21 22:43:00,
2013-03-21 12:52:00,79.0,66.0,-100.00,West,269,7.0,12.0,64,0.00,,,0.00,912.000000,,2013-03-21 22:52:00,
2013-03-21 13:02:00,79.0,66.0,-100.00,West,269,7.0,12.0,64,0.00,,,0.00,912.000000,,2013-03-21 23:02:00,
2013-03-21 13:12:00,79.0,66.0,-100.00,West,269,7.0,12.0,64,0.00,,,0.00,912.000000,,2013-03-21 23:12:00,
2013-03-21 13:21:00,79.0,66.0,-100.00,West,269,7.0,12.0,64,0.00,,,0.00,912.000000,,2013-03-21 23:21:00,
2013-03-21 13:43:00,78.0,66.0,-100.00,West,264,5.0,10.0,66,0.00,,,0.00,973.000000,,2013-03-21 23:43:00,
2013-03-21 13:53:00,78.0,66.0,-100.00,West,264,5.0,10.0,66,0.00,,,0.00,973.000000,,2013-03-21 23:53:00,
2013-03-21 14:02:00,78.0,66.0,-100.00,West,264,5.0,10.0,66,0.00,,,0.00,973.000000,,2013-03-22 00:02:00,
2013-03-21 14:12:00,78.0,66.0,-100.00,West,264,5.0,10.0,66,0.00,,,0.00,973.000000,,2013-03-22 00:12:00,
2013-03-21 14:21:00,78.0,66.0,-100.00,West,264,5.0,10.0,66,0.00,,,0.00,973.000000,,2013-03-22 00:21:00,
2013-03-21 14:42:00,79.0,67.0,-100.00,West,265,6.0,10.0,67,0.00,,,0.00,931.000000,,2013-03-22 00:42:00,
2013-03-21 14:52:00,79.0,67.0,-100.00,West,265,6.0,10.0,67,0.00,,,0.00,931.000000,,2013-03-22 00:52:00,
2013-03-21 15:02:00,79.0,67.0,-100.00,West,265,6.0,10.0,67,0.00,,,0.00,931.000000,,2013-03-22 01:02:00,
2013-03-21 15:12:00,79.0,67.0,-100.00,West,265,6.0,10.0,67,0.00,,,0.00,931.000000,,2013-03-22 01:12:00,
2013-03-21 15:21:00,79.0,67.0,-100.00,West,265,6.0,10.0,67,0.00,,,0.00,931.000000,,2013-03-22 01:21:00,
2013-03-21 15:43:00,78.0,68.0,-100.00,WSW,239,5.0,8.0,71,0.00,,,0.00,803.000000,,2013-03-22 01:43:00,
2013-03-21 15:53:00,78.0,68.0,-100.00,WSW,239,5.0,8.0,71,0.00,,,0.00,803.000000,,2013-03-22 01:53:00,
2013-03-21 16:02:00,78.0,68.0,-100.00,WSW,239,5.0,8.0,71,0.00,,,0.00,803.000000,,2013-03-22 02:02:00,
2013-03-21 16:12:00,78.0,68.0,-100.00,WSW,239,5.0,8.0,71,0.00,,,0.00,803.000000,,2013-03-22 02:12:00,
2013-03-21 16:21:00,78.0,68.0,-100.00,WSW,239,5.0,8.0,71,0.00,,,0.00,803.000000,,2013-03-22 02:21:00,
2013-03-21 16:43:00,79.0,66.0,-100.00,WSW,241,5.0,10.0,65,0.00,,,0.00,621.000000,,2013-03-22 02:43:00,
2013-03-21 16:52:00,79.0,66.0,-100.00,WSW,241,5.0,10.0,65,0.00,,,0.00,621.000000,,2013-03-22 02:52:00,
2013-03-21 17:02:00,79.0,66.0,-100.00,WSW,241,5.0,10.0,65,0.00,,,0.00,621.000000,,2013-03-22 03:02:00,
2013-03-21 17:12:00,79.0,66.0,-100.00,WSW,241,5.0,10.0,65,0.00,,,0.00,621.000000,,2013-03-22 03:12:00,
2013-03-21 17:21:00,79.0,66.0,-100.00,WSW,241,5.0,10.0,65,0.00,,,0.00,621.000000,,2013-03-22 03:21:00,
2013-03-21 17:43:00,78.0,65.0,-100.00,WSW,245,4.0,7.0,64,0.00,,,0.00,376.000000,,2013-03-22 03:43:00,
2013-03-21 17:53:00,78.0,65.0,-100.00,WSW,245,4.0,7.0,64,0.00,,,0.00,376.000000,,2013-03-22 03:53:00,
2013-03-21 18:03:00,78.0,65.0,-100.00,WSW,245,4.0,7.0,64,0.00,,,0.00,376.000000,,2013-03-22 04:03:00,
2013-03-21 18:12:00,78.0,65.0,-100.00,WSW,245,4.0,7.0,64,0.00,,,0.00,376.000000,,2013-03-22 04:12:00,
2013-03-21 18:22:00,78.0,65.0,-100.00,WSW,245,4.0,7.0,64,0.00,,,0.00,376.000000,,2013-03-22 04:22:00,
2013-03-21 18:43:00,77.0,67.0,-100.00,SW,236,2.0,5.0,71,0.00,,,0.00,175.000000,,2013-03-22 04:43:00,
2013-03-21 18:52:00,77.0,67.0,-100.00,SW,236,2.0,5.0,71,0.00,,,0.00,175.000000,,2013-03-22 04:52:00,
2013-03-21 19:02:00,77.0,67.0,-100.00,SW,236,2.0,5.0,71,0.00,,,0.00,175.000000,,2013-03-22 05:02:00,
2013-03-21 19:12:00,77.0,67.0,-100.00,SW,236,2.0,5.0,71,0.00,,,0.00,175.000000,,2013-03-22 05:12:00,
2013-03-21 19:21:00,77.0,67.0,-100.00,SW,236,2.0,5.0,71,0.00,,,0.00,175.000000,,2013-03-22 05:21:00,
2013-03-21 19:42:00,75.0,67.0,-100.00,SW,217,2.0,5.0,75,0.00,,,0.00,14.000000,,2013-03-22 05:42:00,
2013-03-21 19:52:00,75.0,67.0,-100.00,SW,217,2.0,5.0,75,0.00,,,0.00,14.000000,,2013-03-22 05:52:00,
2013-03-21 20:02:00,75.0,67.0,-100.00,SW,217,2.0,5.0,75,0.00,,,0.00,14.000000,,2013-03-22 06:02:00,
2013-03-21 20:12:00,75.0,67.0,-100.00,SW,217,2.0,5.0,75,0.00,,,0.00,14.000000,,2013-03-22 06:12:00,
2013-03-21 20:43:00,74.0,67.0,-100.00,SW,224,1.0,3.0,78,0.00,,,0.00,0.000000,,2013-03-22 06:43:00,
2013-03-21 20:52:00,74.0,67.0,-100.00,SW,224,1.0,3.0,78,0.00,,,0.00,0.000000,,2013-03-22 06:52:00,
2013-03-21 21:02:00,74.0,67.0,-100.00,SW,224,1.0,3.0,78,0.00,,,0.00,0.000000,,2013-03-22 07:02:00,
2013-03-21 21:12:00,74.0,67.0,-100.00,SW,224,1.0,3.0,78,0.00,,,0.00,0.000000,,2013-03-22 07:12:00,
2013-03-21 21:21:00,74.0,67.0,-100.00,SW,224,1.0,3.0,78,0.00,,,0.00,0.000000,,2013-03-22 07:21:00,
2013-03-21 21:42:00,74.0,67.0,-100.00,WSW,240,1.0,5.0,78,0.00,,,0.00,0.000000,,2013-03-22 07:42:00,
2013-03-21 21:52:00,74.0,67.0,-100.00,WSW,240,1.0,5.0,78,0.00,,,0.00,0.000000,,2013-03-22 07:52:00,
2013-03-21 22:02:00,74.0,67.0,-100.00,WSW,240,1.0,5.0,78,0.00,,,0.00,0.000000,,2013-03-22 08:02:00,
2013-03-21 22:12:00,74.0,67.0,-100.00,WSW,240,1.0,5.0,78,0.00,,,0.00,0.000000,,2013-03-22 08:12:00,
2013-03-21 22:42:00,74.0,66.0,-100.00,SSE,152,3.0,5.0,75,0.00,,,0.00,0.000000,,2013-03-22 08:42:00,
2013-03-21 22:52:00,74.0,66.0,-100.00,SSE,152,3.0,5.0,75,0.00,,,0.00,0.000000,,2013-03-22 08:52:00,
2013-03-21 23:02:00,74.0,66.0,-100.00,SSE,152,3.0,5.0,75,0.00,,,0.00,0.000000,,2013-03-22 09:02:00,
2013-03-21 23:12:00,74.0,66.0,-100.00,SSE,152,3.0,5.0,75,0.00,,,0.00,0.000000,,2013-03-22 09:12:00,
2013-03-21 23:21:00,74.0,66.0,-100.00,SSE,152,3.0,5.0,75,0.00,,,0.00,0.000000,,2013-03-22 09:21:00,
2013-03-21 23:42:00,74.0,66.0,-100.00,SE,144,3.0,5.0,76,0.00,,,0.00,0.000000,,2013-03-22 09:42:00,
2013-03-21 23:53:00,74.0,66.0,-100.00,SE,144,3.0,5.0,76,0.00,,,0.00,0.000000,,2013-03-22 09:53:00,